[[{"header":{"parameterUnit":"m.s-1","parameterCategory":1,"la1":30.2991,"la2":30.254,"lo1":-89.0895,"lo2":-89.0444,"dy":0.0017,"dx":0.0017,"nx":28,"ny":28,"refTime":"2025-03-12T03:00:00:Z","depth":0,"parameterNumber":2,"parameterNumberName":"U-component_of_WINDS"},"data":[0,0,0,0,0,0,0,0,0,0,0,0,0,0,0,0,0,0,0,0,0,0,0,0,0,0,0,0,0,0,0,0,0,0,0,0,0,0,0,0,0,0,0,0,0,0,0,0,0,0,0,0,0,0,0,0,0,0,3.2579,3.258,0,3.2708,3.2709,3.2711,3.2727,3.2726,3.2725,3.2723,3.2858,3.2862,3.2867,0,0,0,0,0,0,0,0,0,0,0,0,0,3.2346,3.235,3.2578,3.258,3.2582,3.2708,3.2709,3.2711,3.2727,3.2726,3.2724,3.2723,3.2856,3.2862,3.2867,0,0,0,0,0,0,0,0,0,0,0,0,0,3.2458,3.2352,3.2578,3.2605,3.2609,3.2707,3.2709,3.2712,3.2728,3.2726,3.2724,3.2722,3.2854,3.2861,3.2868,3.295,0,0,3.289,3.2893,0,0,0,0,0,0,0,0,3.2452,3.2467,3.2599,3.2603,3.2608,3.2699,3.2677,3.2791,3.2728,3.2683,3.2723,3.2721,3.2807,3.2818,3.2846,3.2956,3.2962,3.2891,3.2895,3.2898,3.29,0,0,0,0,0,0,0,3.2444,3.2461,3.263,3.2601,3.2606,3.2611,3.2624,3.2698,3.2754,3.2686,3.2688,3.2703,3.2809,3.2839,3.2849,3.2964,3.289,3.2897,3.2901,3.2904,3.3144,3.3146,0,0,0,0,0,0,3.2431,3.2455,3.2626,3.2634,3.2524,3.2616,3.2632,3.2672,3.2753,3.2763,3.2704,3.2703,3.2828,3.2841,3.2854,3.2953,3.2898,3.2904,3.2909,3.3142,3.3145,3.3147,0,0,0,0,0,0,3.2426,3.2446,3.262,3.2545,3.2567,3.2622,3.2667,3.2675,3.2706,3.2766,3.2776,3.2725,3.2827,3.2844,3.2925,3.2958,3.2908,3.2914,3.314,3.3143,3.3146,3.3152,0,0,0,0,0,0,3.242,3.2445,3.2476,3.2545,3.2571,3.2689,3.2669,3.2679,3.2718,3.2718,3.2789,3.2799,3.2827,3.2914,3.2932,3.2967,3.292,3.3137,3.3141,3.3145,3.3149,3.3155,3.316,0,0,0,0,0,3.2411,3.2474,3.2478,3.2498,3.2612,3.2691,3.2706,3.2736,3.2721,3.2752,3.2791,3.2796,3.2951,3.2922,3.2943,3.298,3.3135,3.314,3.3145,3.3147,3.3154,3.316,0,0,0,0,0,0,3.2408,3.2483,3.2488,3.2575,3.2626,3.2694,3.2735,3.2743,3.2801,3.2798,3.2834,3.285,3.2929,3.2963,3.2929,3.3062,3.3042,3.3051,3.3036,3.3044,3.3049,3.3039,3.2926,0,0,0,0,0,3.2417,3.2475,3.2538,3.2608,3.2633,3.268,3.2715,3.2734,3.2789,3.2811,3.2856,3.2909,3.2969,3.3009,3.3068,3.3154,3.3169,3.319,3.3195,3.3199,3.3206,3.3253,3.3262,3.3163,3.3163,3.3163,0,0,3.2437,3.2485,3.252,3.2609,3.2651,3.2709,3.2698,3.2761,3.2805,3.2821,3.2899,3.2934,3.2996,3.3079,3.3118,3.311,3.3237,3.3205,3.3208,3.3213,3.3258,3.3268,3.3276,3.3166,3.3165,3.3165,0,0,3.2503,3.2546,3.2608,3.265,3.2713,3.2743,3.2758,3.2824,3.2847,3.2926,3.2938,3.2991,3.3095,3.3138,3.3173,3.3253,3.326,3.3272,3.33,3.3345,3.3352,3.3359,3.3386,3.3396,3.3279,3.3279,3.3279,0,3.252,3.2609,3.2639,3.2701,3.2739,3.2755,3.2818,3.2857,3.2937,3.2963,3.2952,3.3081,3.3124,3.3217,3.3236,3.3265,3.3282,3.3263,3.3349,3.3356,3.3363,3.3389,3.3399,3.328,3.328,3.328,3.3279,0,3.2625,3.2686,3.2729,3.2804,3.2847,3.2909,3.2949,3.2989,3.3003,3.3034,3.3114,3.3166,3.3234,3.3258,3.3274,3.3353,3.3345,3.3341,3.3322,3.3373,3.3398,3.3408,3.3281,3.3281,3.328,3.328,0,0,3.2693,3.2782,3.2798,3.2831,3.2901,3.2949,3.3011,3.3078,3.311,3.3165,3.3217,3.3304,3.33,3.334,3.3361,3.34,3.3457,3.3391,3.3393,3.34,3.3545,3.3546,3.3557,3.3462,3.3465,3.3466,3.3539,0,3.2766,3.2877,3.2905,3.2999,3.3055,3.3071,3.3125,3.3173,3.3204,3.3256,3.329,3.335,3.3341,3.3365,3.3405,3.3442,3.3487,3.3437,3.3511,3.3513,3.3493,3.3571,3.3573,3.364,3.3549,3.3551,3.3552,0,3.2865,3.292,3.3019,3.308,3.3105,3.3153,3.3215,3.3265,3.332,3.3339,3.3382,3.3399,3.3464,3.3441,3.3531,3.3496,3.3528,3.3551,3.3554,3.3561,3.3535,3.3579,3.3662,3.3671,3.3568,3.3567,3.3566,0,3.2902,3.3001,3.3073,3.3101,3.3174,3.3207,3.3239,3.3292,3.333,3.3384,3.3409,3.3471,3.3504,3.3551,3.3584,3.3565,3.367,3.365,3.3687,3.3686,3.3708,3.3705,3.3795,3.373,3.373,3.373,3.373,0,3.298,3.304,3.309,3.3134,3.3201,3.3233,3.3299,3.3331,3.3378,3.3428,3.3446,3.3493,3.3533,3.3585,3.3611,3.368,3.3696,3.3713,3.3718,3.371,3.3708,3.3731,3.3726,3.3733,3.3732,3.3732,3.3731,0,3.3032,3.3069,3.3147,3.321,3.3227,3.3273,3.3326,3.3369,3.34,3.3463,3.348,3.3527,3.3589,3.3626,3.3706,3.3723,3.3798,3.3803,3.3779,3.3782,3.3815,3.3811,3.3922,3.3938,3.3863,3.3864,3.3865,0,3.3079,3.3125,3.3191,3.3226,3.3258,3.3313,3.3351,3.3384,3.3423,3.3488,3.3523,3.3586,3.3637,3.3736,3.3778,3.3838,3.3843,3.3878,3.3853,3.3842,3.3842,3.3838,3.3842,3.3882,3.3883,3.3883,3.3884,0,3.3156,3.3171,3.3225,3.3284,3.3328,3.3377,3.3425,3.3452,3.3493,3.3536,3.3599,3.3639,3.3718,3.378,3.3843,3.3877,3.3887,3.3891,3.3903,3.3894,3.3877,3.3885,3.379,3.3888,3.3888,3.3888,3.3887,3.3887,3.3206,3.3247,3.3299,3.3358,3.3397,3.3441,3.3484,3.3519,3.3572,3.3638,3.3655,3.3721,3.3773,3.3859,3.3893,3.3945,3.394,3.3956,3.396,3.3964,3.3963,3.387,3.3957,3.3957,3.3957,3.3957,3.3957,0,3.3283,3.3317,3.3371,3.3437,3.3482,3.3487,3.354,3.3578,3.3635,3.3683,3.3733,3.3805,3.3864,3.391,3.3971,3.4004,3.401,3.4018,3.4016,3.4023,3.3966,3.3949,3.4012,3.4012,3.4012,3.4012,3.4012,3.4012,3.3328,3.3397,3.3418,3.3506,3.354,3.3603,3.3633,3.3674,3.3712,3.379,3.3839,3.3869,3.3915,3.398,3.4034,3.4046,3.4067,3.4075,3.4087,3.4033,3.4027,3.4021,3.4006,3.4079,3.408,3.414,3.414,3.414]},{"header":{"parameterUnit":"m.s-1","parameterCategory":1,"la1":30.2991,"la2":30.254,"lo1":-89.0895,"lo2":-89.0444,"dy":0.0017,"dx":0.0017,"nx":28,"ny":28,"refTime":"2025-03-12T03:00:00:Z","depth":0,"parameterNumber":3,"parameterNumberName":"V-component_of_WINDS"},"data":[0,0,0,0,0,0,0,0,0,0,0,0,0,0,0,0,0,0,0,0,0,0,0,0,0,0,0,0,0,0,0,0,0,0,0,0,0,0,0,0,0,0,0,0,0,0,0,0,0,0,0,0,0,0,0,0,0,0,3.4613,3.4613,0,3.4558,3.4557,3.4557,3.4491,3.449,3.4489,3.4488,3.4428,3.4427,3.4427,0,0,0,0,0,0,0,0,0,0,0,0,0,3.466,3.466,3.4614,3.4613,3.4612,3.4558,3.4557,3.4557,3.4491,3.449,3.4489,3.4487,3.4428,3.4428,3.4427,0,0,0,0,0,0,0,0,0,0,0,0,0,3.4626,3.466,3.4614,3.4573,3.4569,3.4558,3.4557,3.4556,3.4491,3.449,3.4488,3.4487,3.4429,3.4428,3.4427,3.4451,0,0,3.4424,3.4423,0,0,0,0,0,0,0,0,3.4628,3.4624,3.458,3.4576,3.4571,3.453,3.4552,3.4521,3.4492,3.4521,3.4488,3.4486,3.4463,3.4459,3.4452,3.4448,3.4445,3.4424,3.4423,3.4423,3.4422,0,0,0,0,0,0,0,3.463,3.4626,3.4591,3.4579,3.4574,3.4557,3.455,3.4546,3.4501,3.4518,3.4513,3.4508,3.446,3.4453,3.445,3.4445,3.4424,3.4423,3.4422,3.4422,3.4457,3.4458,0,0,0,0,0,0,3.4639,3.4629,3.4593,3.459,3.4596,3.4557,3.455,3.4545,3.4501,3.4493,3.4509,3.4505,3.4455,3.4451,3.4448,3.4472,3.4423,3.4422,3.4421,3.4455,3.4457,3.4459,0,0,0,0,0,0,3.4641,3.4637,3.4595,3.4608,3.4601,3.4558,3.4553,3.4544,3.4537,3.4494,3.4485,3.451,3.4454,3.4449,3.4451,3.4469,3.4421,3.442,3.4454,3.4456,3.4458,3.4523,0,0,0,0,0,0,3.4642,3.4638,3.4647,3.4609,3.4601,3.46,3.4554,3.4544,3.4536,3.453,3.4492,3.4485,3.4452,3.4452,3.445,3.4467,3.442,3.4452,3.4455,3.4457,3.4519,3.4527,3.4534,0,0,0,0,0,3.4644,3.4667,3.4648,3.4644,3.4612,3.4602,3.4597,3.456,3.4538,3.4546,3.4518,3.4486,3.4468,3.4453,3.4449,3.4467,3.445,3.4454,3.4457,3.4515,3.4525,3.4534,0,0,0,0,0,0,3.4707,3.4661,3.4639,3.465,3.4631,3.4591,3.46,3.4572,3.4557,3.4552,3.4506,3.4498,3.4505,3.4486,3.447,3.4488,3.4454,3.4457,3.45,3.4509,3.4517,3.4521,3.4419,0,0,0,0,0,3.4723,3.4719,3.4679,3.4692,3.4684,3.4644,3.4638,3.4611,3.4589,3.4579,3.4552,3.453,3.4519,3.4513,3.4501,3.4516,3.4506,3.4526,3.4534,3.454,3.4543,3.4549,3.4557,3.447,3.447,3.447,0,0,3.4754,3.4728,3.4729,3.4704,3.4686,3.4682,3.4637,3.4635,3.4632,3.4579,3.4579,3.4558,3.453,3.4539,3.4541,3.4523,3.4565,3.4545,3.455,3.4549,3.4553,3.4561,3.4569,3.4472,3.4472,3.4472,0,0,3.4809,3.479,3.4799,3.4782,3.4755,3.4728,3.4731,3.4695,3.4679,3.4679,3.4639,3.4634,3.4617,3.4599,3.4587,3.4637,3.4606,3.4634,3.4673,3.468,3.4686,3.4692,3.4709,3.4716,3.4637,3.4637,3.4637,0,3.4852,3.4845,3.4807,3.4808,3.4798,3.4751,3.476,3.4744,3.4714,3.4708,3.4689,3.4667,3.4645,3.4648,3.466,3.4653,3.4653,3.4637,3.4689,3.4694,3.4699,3.4714,3.4721,3.4641,3.464,3.464,3.4639,0,3.4898,3.4895,3.4905,3.4878,3.487,3.4875,3.4836,3.4832,3.4807,3.4782,3.4782,3.4754,3.4735,3.4734,3.4709,3.4734,3.4723,3.4697,3.4663,3.4711,3.4725,3.4731,3.4646,3.4644,3.4643,3.4642,0,0,3.499,3.4944,3.4948,3.4935,3.4902,3.4898,3.4901,3.4883,3.488,3.4861,3.4861,3.4848,3.4824,3.4811,3.4783,3.4789,3.4829,3.4762,3.476,3.4774,3.4853,3.4873,3.488,3.4809,3.481,3.4811,3.4855,0,3.5039,3.5041,3.5007,3.5018,3.5014,3.497,3.4972,3.4951,3.4929,3.4921,3.4895,3.4886,3.4855,3.4847,3.4851,3.4823,3.4844,3.482,3.4807,3.4807,3.4815,3.4888,3.4908,3.4952,3.4861,3.4862,3.4862,0,3.5095,3.5081,3.5092,3.5059,3.5055,3.5058,3.5039,3.5033,3.5009,3.4992,3.4978,3.4947,3.4946,3.4914,3.4911,3.4896,3.4889,3.4875,3.4875,3.4872,3.4837,3.4885,3.4965,3.4971,3.487,3.487,3.4869,0,3.5161,3.5144,3.5148,3.5139,3.51,3.5103,3.5087,3.5061,3.5053,3.5037,3.5031,3.5014,3.5005,3.4992,3.4957,3.4937,3.4958,3.4924,3.4943,3.4944,3.4948,3.4948,3.5027,3.4946,3.4946,3.4945,3.4945,0,3.5218,3.5226,3.5177,3.5179,3.5187,3.5148,3.5156,3.5136,3.5114,3.5111,3.5071,3.5069,3.5023,3.5016,3.4988,3.499,3.4986,3.4971,3.4964,3.4974,3.4976,3.4968,3.4964,3.4947,3.4947,3.4946,3.4946,0,3.5291,3.5259,3.526,3.5224,3.5215,3.5223,3.5191,3.5192,3.5167,3.5164,3.5161,3.5122,3.5111,3.5075,3.5055,3.5036,3.5045,3.5032,3.5054,3.5049,3.507,3.5068,3.5145,3.5153,3.5068,3.5069,3.507,0,3.5329,3.5334,3.5299,3.5295,3.5281,3.5275,3.5267,3.5228,3.5221,3.5194,3.5198,3.5184,3.5171,3.5155,3.5124,3.5109,3.5093,3.5122,3.5091,3.5101,3.5093,3.5092,3.5092,3.5128,3.5129,3.513,3.5131,0,3.5399,3.5383,3.5374,3.5359,3.535,3.5336,3.532,3.5318,3.5275,3.5269,3.5258,3.5248,3.5229,3.5215,3.5195,3.5176,3.5146,3.5141,3.5144,3.5155,3.5167,3.516,3.5071,3.5139,3.5138,3.5138,3.5137,3.5137,3.5455,3.5458,3.5434,3.5424,3.5408,3.5394,3.5393,3.5368,3.5359,3.5341,3.5318,3.531,3.5285,3.5255,3.5239,3.5231,3.5215,3.522,3.5221,3.5223,3.5228,3.517,3.5228,3.5227,3.5227,3.5227,3.5227,0,3.5523,3.5505,3.5497,3.5476,3.5468,3.5442,3.5423,3.5418,3.5412,3.5392,3.538,3.5367,3.5354,3.5323,3.5306,3.5306,3.5292,3.5303,3.5302,3.5298,3.5244,3.5242,3.5315,3.5315,3.5315,3.5315,3.5315,3.5315,3.5557,3.556,3.5541,3.5536,3.5518,3.551,3.5501,3.5488,3.5472,3.546,3.5449,3.5429,3.5405,3.5386,3.5373,3.5364,3.5359,3.5375,3.5361,3.531,3.5302,3.5294,3.5292,3.5374,3.5374,3.5416,3.5416,3.5416]}]]